Weather Roundup
Issued by NWS

Home | Current Version | Previous Version | Text Only | Print | Product List | Glossary On
Versions: 1 2 3 4 5 6 7 8 9 10 11 12 13 14 15 16 17 18 19 20 21 22 23 24 25 26 27 28 29 30 31 32 33 34 35 36 37 38 39 40 41 42 43 44 45 46 47 48 49 50
000
NZUS93 KARX 180910
HRRWXR

CURRENT HOURLY OBSERVATIONS ACROSS
MUCH OF THE UPPER MISSISSIPPI VALLEY
NATIONAL WEATHER SERVICE LA CROSSE WI
400 AM CDT THU SEP 18 2014


...SOUTHEAST MINNESOTA...


CITY           SKY/WX    TMP DP  RH WIND       PRES   REMARKS
ROCHESTER      CLEAR     49  47  93 S6        30.05S
ROCHESTER/MAYO FAIR      53  49  86 E3        30.05S
WINONA         FOG       54  54 100 CALM      30.06S VSB 1/4
AUSTIN         CLEAR     46  45  93 SE3       30.04S
ALBERT LEA     CLEAR     48  48 100 CALM      30.03F
DODGE CENTER   PTCLDY    52  48  87 CALM      30.04S
PRESTON        CLEAR     51  52 100 SW3       30.05S
OWATONNA       CLEAR     52  48  87 CALM      30.03F
FARIBAULT      FOG       50  46  87 CALM      30.04S VSB 3/4
$$

...ELSEWHERE IN MINNESOTA...


CITY           SKY/WX    TMP DP  RH WIND       PRES   REMARKS
MINNEAPOLIS    CLEAR     50  47  89 NE7       30.06S
INTNL FALLS    CLOUDY    41  40  96 SE6       30.11S
DULUTH         CLOUDY    44  37  76 E9        30.13S
RED WING       CLEAR     52  48  87 E5        30.05S
REDWOOD FALLS  CLEAR     53  52  96 E9        30.01R
MANKATO        CLEAR     54  46  76 SE5       30.02S
WORTHINGTON    CLEAR     52  52 100 CALM      30.02R
FAIRMONT       PTCLDY    52  46  82 S6        30.01F
$$

...SOUTHWEST WISCONSIN...


CITY           SKY/WX    TMP DP  RH WIND       PRES   REMARKS
LA CROSSE      MOCLDY    51  49  92 SE5       30.06R FOG
PRAIRIE DU CHI FOG       47  46  96 CALM      30.06R VSB 1/4
BOSCOBEL       FOG       51  50  96 CALM      30.07R VSB 1/4
LONE ROCK      FOG       50  46  86 CALM      30.07R VSB 1/2
PLATTEVILLE    CLEAR     51  48  92 CALM      30.07S
FORT MC COY    CLEAR     42  41  98 CALM      30.08R
CAMP DOUGLAS   CLOUDY    48  48 100 E6        30.09R
VIROQUA        FAIR      50  50 100 E5        30.06S
WIS DELLS      FOG       50  49  95 NE7       30.09R VSB<1/4
$$

...ELSEWHERE IN WISCONSIN...


CITY           SKY/WX    TMP DP  RH WIND       PRES   REMARKS
MILWAUKEE      CLOUDY    53  50  89 N9        30.09R
MADISON        MOCLDY    50  49  96 NE7       30.09R FOG
GREEN BAY      CLOUDY    47  42  83 N10       30.14R
EAU CLAIRE     CLEAR     47  45  93 NE6       30.08R
BLACK RVR FLS  FOG       42  42 100 CALM      30.07S VSB 1/4
MEDFORD        CLOUDY    48  47  94 E3        30.10S
WAUSAU         CLOUDY    46  43  89 E7        30.11R
WIS RAPIDS     CLOUDY    48  45  89 E9        30.12R
MARSHFIELD     CLEAR     46  44  93 E9        30.10R
RICE LAKE      PTCLDY    44  43  95 NE6       30.11S
$$

...NORTHEAST IOWA...


CITY           SKY/WX    TMP DP  RH WIND       PRES   REMARKS
WATERLOO       CLEAR     44  43  96 CALM      30.03F
DUBUQUE        MOCLDY    50  48  93 CALM      30.06R
DECORAH        CLEAR     48  46  93 CALM      30.05R
MASON CITY     CLEAR     46  45  96 CALM      30.05S
CHARLES CITY   CLEAR     50  48  93 SE3       30.05S
OELWEIN        CLEAR     50  48  93 SE5       30.05S
$$

...ELSEWHERE IN IOWA...


CITY           SKY/WX    TMP DP  RH WIND       PRES   REMARKS
DES MOINES     PTCLDY    57  55  93 CALM      30.01S
IOWA CITY      FOG       48  48 100 CALM      30.04F VSB 1/2
FORT DODGE     CLEAR     50  48  93 E5        30.02S
MARSHALLTOWN   PTCLDY    50  49  96 E5        30.03S FOG
CEDAR RAPIDS   CLEAR     49  49 100 CALM      30.03S FOG
$$

...NORTHERN ILLINOIS...


CITY           SKY/WX    TMP DP  RH WIND       PRES   REMARKS
CHICAGO-OHARE  CLEAR     54  49  83 N3        30.05S
DUPAGE         CLEAR     48  44  86 CALM      30.06R
CHICAGO-MIDWAY CLEAR     54  49  83 CALM      30.05S
MOLINE         FOG       47  46  97 CALM      30.04S VSB 1/2
ROCKFORD       CLEAR     49  46  90 CALM      30.08S
STERLING       PTCLDY    48  46  93 CALM      30.05S
PEORIA         CLEAR     53  50  89 NE3       30.03F FOG
$$

NOTE: "FAIR" INDICATES FEW OR NO CLOUDS BELOW 12,000 FEET WITH NO
SIGNIFICANT WEATHER AND/OR OBSTRUCTIONS TO VISIBILITY. WIND
SPEEDS ARE IN MILES-PER-HOUR.



USA.gov is the U.S. government's official web portal to all federal, state and local government web resources and services.